Weather History for KSNT - August, 2013

Change the Weather History Date:

Thursday, August 1, 2013

  Actual Average Record
Temperature  
Mean Temperature 60 °F 59 °F  
Max Temperature 79 °F 80 °F 90 °F (2000)
Min Temperature 40 °F 38 °F 22 °F (1923)
Degree Days  
Heating Degree Days 5 6  
Month to date heating degree days 5 6  
Since 1 June heating degree days 517 701  
Since 1 July heating degree days 148 247  
Cooling Degree Days 0 0  
Month to date cooling degree days 0 0  
Year to date cooling degree days 19 3  
Since 1 June cooling degree days 19 3  
Growing Degree Days 14 (Base 50)    
Moisture  
Dew Point 43 °F    
Average Humidity 49    
Maximum Humidity 74    
Minimum Humidity 24    
Precipitation  
Precipitation 0.04 in 0.02 in 0.18 in (1976)
Month to date precipitation 0.04 0.02  
Year to date precipitation 6.27 10.63  
Sea Level Pressure  
Sea Level Pressure 29.79 in    
Wind  
Wind Speed 5 mph (WNW)    
Max Wind Speed 18 mph    
Max Gust Speed 35 mph    
T = Trace of Precipitation, MM = Missing Value Source: NWS Daily Summary

Daily Weather History Graph

Daily Weather History Graph

Search for Another Location

Airport or City:

Trip Planner

Search our weather history database for the weather conditions in past years. The results will help you decide how hot, cold, wet, or windy it might be!

Date:

Astronomy

Aug. 01, 2013 Rise Set
Actual Time 6:27 AM MDT 9:03 PM MDT
Civil Twilight 5:54 AM MDT 9:36 PM MDT
Nautical Twilight 5:13 AM MDT 10:17 PM MDT
Astronomical Twilight 4:25 AM MDT 11:04 PM MDT
Moon 2:06 AM MDT (8/1) 5:17 PM MDT (8/1)
Length of Visible Light 15h 41m
Length of Day
14h 35m
Waning Crescent, 23% of the Moon is Illuminated
Aug 1
Waning Crescent
Aug 6
New
Aug 14
First Quarter
Aug 20
Full
Aug 28
Last Quarter

Hourly Weather History & Observations

Time (MDT) Temp. Dew Point Humidity Pressure Visibility Wind Dir Wind Speed Gust Speed Precip Events Conditions
12:51 AM 54.0 °F 41.0 °F 62% 29.88 in - Calm Calm - N/A   Unknown
1:51 AM 54.0 °F 43.0 °F 66% 29.83 in - Variable 5.8 mph - N/A   Unknown
2:51 AM 55.0 °F 45.0 °F 69% 29.85 in - SSW 8.1 mph - 0.01 in   Unknown
3:51 AM 53.1 °F 44.1 °F 71% 29.81 in - East 9.2 mph - N/A   Unknown
4:51 AM 54.0 °F 43.0 °F 66% 29.80 in - ESE 5.8 mph - N/A   Unknown
6:51 AM 50.0 °F 42.1 °F 74% 29.85 in - Calm Calm - N/A   Unknown
7:51 AM 54.0 °F 45.0 °F 72% 29.83 in - Calm Calm - N/A   Unknown
8:51 AM 60.1 °F 44.1 °F 55% 29.82 in - Calm Calm - N/A   Unknown
9:51 AM 66.9 °F 43.0 °F 42% 29.78 in - North 3.5 mph - N/A   Unknown
10:51 AM 72.0 °F 39.9 °F 31% 29.75 in - Variable 4.6 mph - N/A   Unknown
11:51 AM 75.0 °F 39.0 °F 27% 29.72 in - Variable 4.6 mph - N/A   Unknown
12:51 PM 77.0 °F 37.9 °F 24% 29.70 in - Variable 4.6 mph - N/A   Unknown
1:51 PM 75.0 °F 39.9 °F 28% 29.70 in - NW 5.8 mph - N/A   Unknown
2:51 PM 69.1 °F 45.0 °F 42% 29.74 in - NNW 4.6 mph - N/A   Unknown
3:51 PM 64.0 °F 46.0 °F 52% 29.78 in - WNW 10.4 mph 19.6 mph 0.01 in   Unknown
4:51 PM 64.0 °F 52.0 °F 65% 29.77 in - Calm Calm - 0.02 in   Unknown
5:51 PM 66.0 °F 50.0 °F 56% 29.75 in - West 3.5 mph - N/A   Unknown
6:51 PM 64.0 °F 50.0 °F 60% 29.75 in - Calm Calm - N/A   Unknown
7:51 PM 63.0 °F 37.9 °F 40% 29.76 in - West 11.5 mph 26.5 mph N/A   Unknown
8:51 PM 59.0 °F 37.0 °F 44% 29.76 in - SW 3.5 mph - N/A   Unknown
9:51 PM 55.0 °F 43.0 °F 64% 29.82 in - NNW 9.2 mph 20.7 mph N/A   Unknown
10:51 PM 50.0 °F 39.9 °F 68% 29.85 in - ENE 4.6 mph - N/A   Unknown
11:51 PM 48.0 °F 39.0 °F 71% 29.83 in - SW 3.5 mph - N/A   Unknown